Bagan Pulau Ketam, Malaysia

12:27 AM +08 on June 23, 2017 (GMT +0800)
Klang | | Change Station

Elev 20 ft 3.05 °N, 101.45 °E | Updated 3 seconds ago

Mostly Cloudy
Mostly Cloudy
83.7 °F
Feels Like 92 °F
N
0.0
Wind Variable Wind from SW
Gusts 0.0 mph

Today
High -- | Low -- °F
--% Chance of Precip.
Yesterday
High -- | Low -- °F
Precip. -- in
Pressure 29.86 in
Visibility 3.1 miles
Clouds Few 1700 ft
Scattered Clouds 14000 ft
Mostly Cloudy 28000 ft
Heat Index 92 °F
Dew Point 76 °F
Humidity 78%
Rainfall 0.00 in
Snow Depth Not available.
7:08 AM 7:26 PM
Waning Crescent, 3% visible
METAR WMKK 221600Z VRB01KT 5000 HZ FEW017CB SCT140 BKN280 27/25 Q1011 NOSIG
Pressure 29.86 in
Visibility 3.1 miles
Clouds Few 1700 ft
Scattered Clouds 14000 ft
Mostly Cloudy 28000 ft
Heat Index 92 °F
Dew Point 76 °F
Humidity 78%
Rainfall 0.00 in
Snow Depth Not available.
7:08 AM 7:26 PM
Waning Crescent, 3% visible
METAR WMKK 221600Z VRB01KT 5000 HZ FEW017CB SCT140 BKN280 27/25 Q1011 NOSIG

Get Severe Weather Alerts

Thanks for signing up!

Be on the lookout for a verification email in your inbox.

You'll start receiving the daily forecast at 6 AM.

×

10-Day Weather Forecast

No radar image for this location.
×

Almanac

Astronomy

Jun. 23, 2017 Rise Set
Actual Time
Civil Twilight
Nautical Twilight
Astronomical Twilight
Moon
Length of Visible Light
Length of Day
Tomorrow will be .
, % of the Moon is Illuminated

Today's Extremes

Country Highs Country Lows

Community

WunderPhotos

Category 6

Welcome to Category 6. This is the collective home for Weather Underground's featured writeups by Dr. Jeff Masters (right), Bob Henson (left), Chris Burt, and other regular contributors.

Nearby

Air Quality

  Air Quality AQ Index Pollutant
Not available.

Snow Depth

Station Depth Elevation

Earthquake Activity

City Distance Mag. Time & Date
Minimum magnitude displayed is 2.5.

Coastal Water Temperatures

Place Temperature

Stations

Nearby Weather Stations

Station Location Temp. Windchill Dew Point Humidity Wind Precip. Elev Updated Type